Location: �perlecques
(50.8057°N, 2.1521°E)
Time: 20:32:52
(UTC+00:00)

Tiros 1 - Pass Details

Date: 08 August 2021
Orbit: 630 x 663 km, 48.4° (Epoch: 28 September)

Event Time Altitude Azimuth Distance (km) Brightness Sun altitude
Rises 17:39:09 0° 261° (W) 2,991 12.1 15.1°
Reaches altitude 10° 17:41:31 10° 259° (W) 2,076 11.5 14.7°
Maximum altitude 17:46:16 67° 178° (S) 715 7.6 13.9°
Drops below altitude 10° 17:50:59 10° 96° (E) 2,060 9.2 13.2°
Sets 17:53:19 0° 94° (E) 2,965 9.9 12.8°
